Location: Oberkirch
(48.5323°N, 8.0787°E)
Time: 15:19:55
(UTC+00:00)

SL-24 R/B - RUBIN 2 - Visible Passes

Search period start: 12 February 2026 00:00
Search period end: 22 February 2026 00:00
Orbit: 602 x 985 km, 64.6° (Epoch: 10 February)

Date Brightness Start Highest point End Pass type
(mag) Time Alt. Az. Time Alt. Az. Time Alt. Az.
12 Feb 6.7 02:38:14 12° NE 02:38:14 12° NE 02:38:38 10° NE visible
12 Feb 4.9 04:19:01 29° NNW 04:19:01 29° NNW 04:22:07 10° NNE visible
12 Feb 5.7 06:01:11 10° NW 06:03:03 12° NNW 06:04:53 10° N visible
13 Feb 5.3 03:49:54 26° N 03:49:54 26° N 03:52:08 10° NNE visible
13 Feb 5.7 05:30:40 11° NW 05:32:42 13° NNW 05:34:57 10° NNE visible
14 Feb 5.9 03:20:44 19° NNE 03:20:44 19° NNE 03:22:08 10° NNE visible
14 Feb 5.5 05:01:29 14° NW 05:02:23 15° NNW 05:05:01 10° NNE visible
15 Feb 6.4 02:51:31 14° NNE 02:51:31 14° NNE 02:52:07 10° NE visible
15 Feb 5.5 04:32:17 17° NNW 04:32:17 17° NNW 04:35:05 10° NNE visible
16 Feb 5.6 04:03:03 18° N 04:03:03 18° N 04:05:08 10° NNE visible
16 Feb 6.0 05:46:44 10° N 05:47:17 10° N 05:47:51 10° N visible
17 Feb 5.9 03:33:48 16° N 03:33:48 16° N 03:35:11 10° NNE visible
17 Feb 5.9 05:15:56 10° NNW 05:16:55 11° N 05:17:52 10° N visible
18 Feb 6.3 03:04:31 14° NNE 03:04:31 14° NNE 03:05:13 10° NNE visible
18 Feb 5.9 04:45:17 10° NNW 04:46:33 11° NNW 04:47:56 10° N visible
19 Feb 6.7 02:35:13 10° NNE 02:35:13 10° NNE 02:35:15 10° NNE visible
19 Feb 5.9 04:15:59 12° NNW 04:16:11 12° NNW 04:18:01 10° N visible
20 Feb 6.0 03:46:40 13° N 03:46:40 13° N 03:48:05 10° N visible
20 Feb 6.0 05:30:37 10° N 05:31:34 11° N 05:32:30 10° NNE visible
21 Feb 6.2 03:17:21 12° N 03:17:21 12° N 03:18:08 10° NNE visible
21 Feb 6.1 05:00:41 10° N 05:01:11 10° N 05:01:40 10° N visible
